Location: Kumla
(59.1265°N, 15.1401°E)
Time: 17:12:30
(UTC+01:00)

A-11 Canister half - Pass Details

Date: 05 December 2023
Orbit: 1526 x 1682 km, 47.3° (Epoch: 24 February)

Event Time Altitude Azimuth Distance (km) Brightness Sun altitude
Rises 23:14:32 0° 268° (W) 4,929 11.7 -52.8°
Enters shadow 23:15:52 - 265° (W) 4,540 11.5 -52.8°
Reaches altitude 10° 23:18:01 10° 260° (W) 3,930 - -52.9°
Maximum altitude 23:26:52 37° 198° (SSW) 2,355 - -53.1°
Drops below altitude 10° 23:35:31 10° 136° (SE) 3,831 - -53.2°
Sets 23:38:52 0° 129° (SE) 4,792 - -53.2°
